N3EDS Weather Reports


time (UTC)temp
C
wind
direction
speed
KPH
gust
KPH
rain 1hr
cm
rain 24hr
cm
rain mn
cm
humidity
%
barometer
mb
20260504050416 3 126 0.0 1.6 0.00 0.00 0.00 76 1014.9
20260504045913 3 133 0.0 0.0 0.00 0.00 0.00 79 1015.2
20260504045408 3 145 0.0 0.0 0.00 0.00 0.00 80 1015.2
20260504044905 3 145 0.0 0.0 0.00 0.00 0.00 79 1015.0
20260504044403 3 137 0.0 0.0 0.00 0.00 0.00 78 1014.9
20260504043900 3 134 0.0 0.0 0.00 0.00 0.00 78 1015.0
20260504043356 3 133 0.0 0.0 0.00 0.00 0.00 76 1015.0
20260504042854 3 133 0.0 0.0 0.00 0.00 0.00 76 1014.7
20260504042350 4 143 0.0 0.0 0.00 0.00 0.00 75 1014.9
20260504041846 4 144 0.0 0.0 0.00 0.00 0.00 72 1014.9
20260504041343 4 102 1.6 1.6 0.00 0.00 0.00 72 1014.9
20260504040839 4 144 0.0 1.6 0.00 0.00 0.00 75 1014.9
20260504040337 4 149 0.0 0.0 0.00 0.00 0.00 75 1014.9
20260504035832 3 148 0.0 0.0 0.00 0.00 0.00 76 1014.8
20260504035330 3 149 0.0 0.0 0.00 0.00 0.00 75 1015.0
20260504034827 3 148 0.0 0.0 0.00 0.00 0.00 73 1015.0
20260504034325 4 149 0.0 0.0 0.00 0.00 0.00 73 1015.2
20260504033821 4 149 0.0 0.0 0.00 0.00 0.00 75 1014.9
20260504033320 4 149 0.0 0.0 0.00 0.00 0.00 77 1015.3
20260504032816 4 149 0.0 0.0 0.00 0.00 0.00 74 1015.2
20260504032313 4 152 0.0 1.6 0.00 0.00 0.00 76 1015.3
20260504031810 4 148 0.0 0.0 0.00 0.00 0.00 74 1015.0
20260504031307 4 148 0.0 0.0 0.00 0.00 0.00 73 1015.3
20260504030803 4 148 0.0 0.0 0.00 0.00 0.00 72 1015.4
20260504030301 4 148 0.0 0.0 0.00 0.00 0.00 70 1015.3
20260504025756 4 149 0.0 0.0 0.00 0.00 0.00 71 1014.8
20260504025254 4 146 0.0 0.0 0.00 0.00 0.00 70 1015.2
20260504024750 4 146 0.0 0.0 0.00 0.00 0.00 69 1015.3
20260504024247 4 146 0.0 0.0 0.00 0.00 0.00 70 1015.4
20260504023744 4 146 0.0 0.0 0.00 0.00 0.00 70 1015.3
20260504023240 5 146 0.0 0.0 0.00 0.00 0.00 71 1015.3
20260504022736 5 146 0.0 0.0 0.00 0.00 0.00 70 1015.2
20260504022233 5 146 0.0 0.0 0.00 0.00 0.00 71 1015.3
20260504021730 5 146 0.0 0.0 0.00 0.00 0.00 71 1015.3
20260504021227 5 146 0.0 0.0 0.00 0.00 0.00 68 1015.3
20260504020724 5 146 0.0 0.0 0.00 0.00 0.00 69 1015.2
20260504020220 5 146 0.0 0.0 0.00 0.00 0.00 65 1015.0
20260504015716 5 146 0.0 0.0 0.00 0.00 0.00 71 1015.0
20260504015213 5 146 0.0 0.0 0.00 0.00 0.00 64 1015.3
20260504014709 5 146 0.0 0.0 0.00 0.00 0.00 63 1015.2
20260504014206 5 146 0.0 0.0 0.00 0.00 0.00 63 1014.9
20260504013704 5 146 0.0 0.0 0.00 0.00 0.00 65 1015.2
20260504013201 6 146 0.0 0.0 0.00 0.00 0.00 64 1014.8
20260504012657 6 146 0.0 0.0 0.00 0.00 0.00 66 1015.0
20260504012155 6 146 0.0 0.0 0.00 0.00 0.00 64 1014.8
20260504011652 6 146 0.0 0.0 0.00 0.00 0.00 64 1014.8
20260504011148 6 146 0.0 0.0 0.00 0.00 0.00 59 1014.7
20260504010644 7 147 0.0 0.0 0.00 0.00 0.00 59 1015.0
20260504010140 7 148 0.0 1.6 0.00 0.00 0.00 60 1014.8
20260504005637 7 129 0.0 0.0 0.00 0.00 0.00 60 1015.2
20260504005134 7 129 0.0 0.0 0.00 0.00 0.00 62 1014.9
20260504004632 7 129 0.0 0.0 0.00 0.00 0.00 61 1014.8
20260504004129 7 129 0.0 0.0 0.00 0.00 0.00 59 1014.7
20260504003625 8 147 0.0 0.0 0.00 0.00 0.00 57 1015.0
20260504003122 8 158 0.0 0.0 0.00 0.00 0.00 58 1014.6
20260504002619 8 151 0.0 1.6 0.00 0.00 0.00 56 1014.8
20260504002116 8 152 0.0 1.6 0.00 0.00 0.00 54 1014.8
20260504001614 8 165 0.0 1.6 0.00 0.00 0.00 54 1014.7
20260504001109 9 174 1.6 1.6 0.00 0.00 0.00 55 1015.0
20260504000607 9 279 1.6 3.2 0.00 0.00 0.00 51 1014.8
20260504000105 9 173 1.6 3.2 0.00 0.00 0.00 50 1014.8
20260503235603 9 179 1.6 3.2 0.00 0.00 0.00 49 1014.7
20260503235059 9 274 1.6 1.6 0.00 0.00 0.00 52 1014.9
20260503234557 10 232 3.2 3.2 0.00 0.00 0.00 50 1014.6
20260503234055 10 260 1.6 4.8 0.00 0.00 0.00 49 1014.7
20260503233551 10 246 3.2 3.2 0.00 0.00 0.00 48 1014.8
20260503233047 10 74 1.6 4.8 0.00 0.00 0.00 48 1014.8
20260503232544 10 174 1.6 4.8 0.00 0.00 0.00 49 1014.7
20260503232042 10 318 3.2 4.8 0.00 0.00 0.00 47 1014.8
20260503231539 10 175 1.6 3.2 0.00 0.00 0.00 48 1014.8
20260503231036 10 201 1.6 3.2 0.00 0.00 0.00 46 1014.7
20260503230532 10 275 4.8 4.8 0.00 0.00 0.00 46 1014.8
20260503230030 10 299 6.4 9.7 0.00 0.00 0.00 48 1014.8
20260503225527 10 171 1.6 4.8 0.00 0.00 0.00 46 1014.8
20260503225021 10 249 3.2 4.8 0.00 0.00 0.00 45 1014.7
20260503224519 11 244 4.8 4.8 0.00 0.00 0.00 43 1014.9
20260503224012 11 288 3.2 4.8 0.00 0.00 0.00 45 1014.7
20260503223510 11 215 1.6 3.2 0.00 0.00 0.00 45 1014.7
20260503223005 11 204 3.2 9.7 0.00 0.00 0.00 43 1014.9
20260503222503 11 268 4.8 9.7 0.00 0.00 0.00 43 1014.8
20260503222001 11 210 1.6 6.4 0.00 0.00 0.00 44 1014.7
20260503221458 11 271 6.4 9.7 0.00 0.00 0.00 43 1014.9
20260503220950 11 15 3.2 3.2 0.00 0.00 0.00 44 1014.6
20260503220446 11 348 3.2 3.2 0.00 0.00 0.00 44 1014.7
20260503215943 11 271 6.4 9.7 0.00 0.00 0.00 44 1014.8
20260503215440 11 124 0.0 4.8 0.00 0.00 0.00 46 1014.7
20260503214937 11 14 3.2 6.4 0.00 0.00 0.00 43 1014.6
20260503214435 12 258 6.4 6.4 0.00 0.00 0.00 42 1014.7
20260503213932 11 322 1.6 3.2 0.00 0.00 0.00 45 1015.0
20260503213431 11 175 1.6 4.8 0.00 0.00 0.00 44 1014.9
20260503212926 11 192 3.2 4.8 0.00 0.00 0.00 42 1014.8
20260503212424 11 265 3.2 4.8 0.00 0.00 0.00 44 1014.8
20260503211921 11 287 3.2 6.4 0.00 0.00 0.00 43 1015.2
20260503211418 12 259 4.8 9.7 0.00 0.00 0.00 42 1014.7
20260503210913 11 188 4.8 14.5 0.00 0.00 0.00 44 1014.7
20260503210410 11 52 1.6 3.2 0.00 0.00 0.00 45 1014.8
20260503205905 12 189 4.8 6.4 0.00 0.00 0.00 43 1014.9
20260503205403 11 43 3.2 6.4 0.00 0.00 0.00 45 1015.0
20260503204858 11 258 6.4 11.3 0.00 0.00 0.00 44 1015.2
20260503204356 12 273 3.2 4.8 0.00 0.00 0.00 43 1014.9
20260503203853 12 297 1.6 9.7 0.00 0.00 0.00 44 1015.0
20260503203350 11 49 1.6 3.2 0.00 0.00 0.00 45 1015.4
20260503202847 11 292 4.8 6.4 0.00 0.00 0.00 44 1015.2
20260503202345 12 257 1.6 4.8 0.00 0.00 0.00 43 1015.3
20260503201844 11 247 4.8 4.8 0.00 0.00 0.00 45 1015.3
20260503201340 12 198 3.2 9.7 0.00 0.00 0.00 42 1015.4
20260503200838 11 166 4.8 11.3 0.00 0.00 0.00 42 1015.4
20260503200333 11 205 3.2 3.2 0.00 0.00 0.00 44 1015.4
20260503195831 11 276 3.2 6.4 0.00 0.00 0.00 46 1015.4
20260503195327 11 288 4.8 11.3 0.00 0.00 0.00 42 1015.4
20260503194825 11 296 4.8 6.4 0.00 0.00 0.00 45 1015.5
20260503194320 12 264 3.2 9.7 0.00 0.00 0.00 43 1015.6
20260503193817 11 184 4.8 11.3 0.00 0.00 0.00 42 1015.5
20260503193313 11 326 3.2 11.3 0.00 0.00 0.00 43 1015.8
20260503192809 11 183 3.2 4.8 0.00 0.00 0.00 45 1015.8
20260503192305 11 206 1.6 9.7 0.00 0.00 0.00 44 1015.8
20260503191801 12 94 1.6 4.8 0.00 0.00 0.00 43 1015.8
20260503191258 12 342 4.8 6.4 0.00 0.00 0.00 43 1016.0
20260503190755 12 267 3.2 9.7 0.00 0.00 0.00 47 1015.8
20260503190251 11 231 3.2 6.4 0.00 0.00 0.00 42 1016.0
20260503185749 10 354 3.2 6.4 0.00 0.00 0.00 49 1015.9
20260503185244 11 280 3.2 11.3 0.00 0.00 0.00 44 1016.1
20260503184739 11 106 4.8 12.9 0.00 0.00 0.00 44 1015.9
20260503184236 12 256 3.2 4.8 0.00 0.00 0.00 46 1016.3
20260503183732 12 324 4.8 9.7 0.00 0.00 0.00 44 1016.2
20260503183230 12 175 3.2 9.7 0.00 0.00 0.00 45 1016.1
20260503182727 12 334 6.4 6.4 0.00 0.00 0.00 44 1016.2
20260503182226 11 217 4.8 11.3 0.00 0.00 0.00 45 1016.2
20260503181722 10 225 6.4 6.4 0.00 0.00 0.00 44 1016.3
20260503181219 10 22 3.2 12.9 0.00 0.00 0.00 46 1016.3
20260503180715 11 218 6.4 9.7 0.00 0.00 0.00 46 1016.2
20260503180214 11 356 8.0 9.7 0.00 0.00 0.00 46 1016.2
20260503175710 11 257 8.0 11.3 0.00 0.00 0.00 44 1016.2
20260503175208 11 24 3.2 4.8 0.00 0.00 0.00 45 1016.5
20260503174704 11 320 1.6 11.3 0.00 0.00 0.00 48 1016.3
20260503174202 10 192 4.8 6.4 0.00 0.00 0.00 46 1016.8
20260503173657 11 165 3.2 11.3 0.00 0.00 0.00 43 1016.8
20260503173153 10 181 3.2 4.8 0.00 0.00 0.00 44 1016.6
20260503172650 10 283 6.4 11.3 0.00 0.00 0.00 45 1016.6
20260503172147 10 271 1.6 9.7 0.00 0.00 0.00 51 1016.4
20260503171643 10 42 3.2 9.7 0.00 0.00 0.00 44 1016.8
20260503171141 10 288 8.0 11.3 0.00 0.00 0.00 47 1016.9
20260503170638 10 295 9.7 11.3 0.00 0.00 0.00 45 1017.0
20260503170135 10 313 8.0 11.3 0.00 0.00 0.00 46 1016.8
20260503150526 7 295 6.4 11.3 0.00 0.00 0.00 52 1017.6
20260503131419 4 274 3.2 9.7 0.00 0.00 0.00 72 1017.5
20260503130915 4 69 3.2 4.8 0.00 0.00 0.00 75 1017.3
20260503130414 3 271 4.8 4.8 0.00 0.00 0.00 74 1017.5
20260503110811 -1 182 0.0 1.6 0.00 0.00 0.00 98 1016.6
20260503110309 -1 201 1.6 1.6 0.00 0.00 0.00 99 1016.6
20260503100235 -1 146 0.0 1.6 0.00 0.00 0.00 99 1016.1
20260503090154 -1 136 0.0 0.0 0.00 0.00 0.00 98 1015.7
20260503081629 0 184 1.6 1.6 0.00 0.00 0.00 96 1015.6
20260503081126 0 160 0.0 1.6 0.00 0.00 0.00 97 1015.4
20260503080622 0 197 1.6 3.2 0.00 0.00 0.00 97 1015.7
20260503080119 0 141 0.0 0.0 0.00 0.00 0.00 96 1015.2
20260503072556 0 157 0.0 1.6 0.00 0.00 0.00 92 1015.4
20260503072053 0 146 0.0 1.6 0.00 0.00 0.00 92 1015.2
20260503071550 0 204 0.0 0.0 0.00 0.00 0.00 91 1015.0
20260503071047 0 131 0.0 1.6 0.00 0.00 0.00 90 1014.9
20260503070543 0 153 0.0 0.0 0.00 0.00 0.00 89 1014.8
20260503054957 1 158 1.6 1.6 0.00 0.00 0.00 84 1015.5
20260503054453 1 151 1.6 1.6 0.00 0.00 0.00 84 1015.0
20260503053951 1 154 0.0 1.6 0.00 0.00 0.00 86 1015.0